Thurlow Lake Weather Center

Moon Phase Calendar



Thurlow Lake Water Level
Online Cameras

 


      

Current Conditions in Tallassee
7/28/2021 9:55:50 AM

84°F
Feels Like 86
Clouds
Humidity
58%
Pressure
30.03"
Wind
4.4 mph (NW)
Dew Point
67°F
UV Index
6/10 (High)
Visibility
6 mi

Hourly Forecast

Date & Time Wed, Jul 28
9:00 AM
Wed, Jul 28
10:00 AM
Wed, Jul 28
11:00 AM
Wed, Jul 28
12:00 PM
Wed, Jul 28
1:00 PM
Wed, Jul 28
2:00 PM
Wed, Jul 28
3:00 PM
Wed, Jul 28
4:00 PM
Wed, Jul 28
5:00 PM
Wed, Jul 28
6:00 PM
Wed, Jul 28
7:00 PM
Wed, Jul 28
8:00 PM
Wed, Jul 28
9:00 PM
Wed, Jul 28
10:00 PM
Wed, Jul 28
11:00 PM
Thu, Jul 29
12:00 AM
Thu, Jul 29
1:00 AM
Thu, Jul 29
2:00 AM
Thu, Jul 29
3:00 AM
Thu, Jul 29
4:00 AM
Thu, Jul 29
5:00 AM
Thu, Jul 29
6:00 AM
Thu, Jul 29
7:00 AM
Thu, Jul 29
8:00 AM
Thu, Jul 29
9:00 AM
Thu, Jul 29
10:00 AM
Thu, Jul 29
11:00 AM
Thu, Jul 29
12:00 PM
Thu, Jul 29
1:00 PM
Thu, Jul 29
2:00 PM
Thu, Jul 29
3:00 PM
Thu, Jul 29
4:00 PM
Thu, Jul 29
5:00 PM
Thu, Jul 29
6:00 PM
Thu, Jul 29
7:00 PM
Thu, Jul 29
8:00 PM
Thu, Jul 29
9:00 PM
Thu, Jul 29
10:00 PM
Thu, Jul 29
11:00 PM
Fri, Jul 30
12:00 AM
Fri, Jul 30
1:00 AM
Fri, Jul 30
2:00 AM
Fri, Jul 30
3:00 AM
Fri, Jul 30
4:00 AM
Fri, Jul 30
5:00 AM
Fri, Jul 30
6:00 AM
Fri, Jul 30
7:00 AM
Fri, Jul 30
8:00 AM
Condition
Clouds

Clouds

Clouds

Clouds

Clouds

Clouds

Clouds

Clouds

Clouds

Clouds

Clouds

Clouds

Clouds

Clouds

Clouds

Clouds

Clouds

Clear

Clear

Clear

Clear

Clear

Clear

Clear

Clear

Clear

Clear

Clear

Clear

Clear

Clear

Clear

Clear

Clear

Clear

Clear

Clear

Clear

Clear

Clear

Clear

Clear

Clear

Clear

Clouds

Clouds

Clouds

Clouds
Temperature 83°F84°F85°F88°F91°F94°F94°F91°F89°F87°F85°F85°F83°F81°F80°F79°F78°F76°F75°F75°F74°F73°F75°F81°F87°F91°F95°F98°F100°F101°F102°F101°F100°F98°F90°F85°F83°F81°F79°F78°F77°F77°F76°F76°F75°F74°F77°F82°F
Feels Like 87°F86°F88°F91°F95°F98°F99°F98°F97°F94°F91°F90°F87°F84°F83°F79°F78°F77°F76°F75°F74°F74°F76°F83°F89°F93°F97°F100°F101°F102°F102°F101°F100°F99°F93°F87°F84°F82°F79°F79°F78°F77°F77°F76°F75°F75°F77°F84°F
Cloudiness 29%29%30%31%38%86%100%100%100%100%100%94%74%58%55%52%49%6%3%2%2%2%2%3%6%4%3%3%2%1%2%1%1%2%1%0%0%1%1%1%1%0%1%4%24%37%34%13%
Visibility 6 mi6 mi6 mi6 mi6 mi6 mi6 mi6 mi6 mi6 mi6 mi6 mi6 mi6 mi6 mi6 mi6 mi6 mi6 mi6 mi6 mi6 mi6 mi6 mi6 mi6 mi6 mi6 mi6 mi6 mi6 mi6 mi6 mi6 mi6 mi6 mi6 mi6 mi6 mi6 mi6 mi6 mi6 mi6 mi6 mi6 mi6 mi6 mi
Precipitation 0%0%0%0%0%12%0%0%0%0%0%5%5%5%5%5%5%0%0%0%0%0%0%0%0%0%0%0%0%0%0%0%0%0%0%0%0%0%0%0%0%0%0%0%0%0%0%0%
Humidity 60%58%56%53%47%44%44%55%58%62%64%62%64%68%69%72%73%74%73%72%72%72%72%60%50%41%35%31%28%26%25%24%25%31%45%51%53%56%59%61%62%63%64%66%68%70%70%59%
Dew Point 68°F67°F67°F68°F68°F68°F69°F72°F72°F73°F72°F70°F70°F69°F69°F69°F68°F67°F66°F65°F64°F64°F66°F66°F66°F65°F63°F63°F61°F60°F59°F59°F59°F62°F66°F65°F64°F63°F64°F64°F63°F63°F63°F63°F63°F64°F66°F66°F
Pressure 30.03"30.03"30.03"30.03"30"29.97"29.94"29.94"29.91"29.91"29.91"29.94"29.94"29.94"29.97"29.97"29.94"29.94"29.94"29.94"29.97"29.97"30"30.03"30.03"30.03"30"30"29.97"29.94"29.94"29.91"29.91"29.91"29.91"29.94"29.97"29.97"29.97"29.97"29.97"29.97"29.97"29.97"29.97"30"30"30.03"
Wind Speed 3.8 mph4.4 mph4.3 mph3.8 mph3.4 mph3.3 mph1.7 mph1.5 mph3.7 mph5 mph4.7 mph5 mph4.8 mph4 mph1.3 mph1 mph1 mph2.9 mph2.6 mph3.3 mph3.7 mph4.1 mph3.7 mph3.7 mph3.3 mph4.1 mph4 mph3.6 mph4 mph4.3 mph3.8 mph4.1 mph4.7 mph5.5 mph6 mph6 mph5 mph4.6 mph4.6 mph3.8 mph3.1 mph3.1 mph3.5 mph2.8 mph2.6 mph2.6 mph2.6 mph2.7 mph
Wind
Direction
314°
NW
318°
NW
327°
NNW
341°
NNW
358°
N
10°
N
24°
NNE
286°
WNW
304°
NW
335°
NNW
347°
NNW
343°
NNW
355°
N
359°
N
23°
NNE
83°
E
355°
N

N
16°
NNE

N

N
19°
NNE
13°
NNE

N
349°
N
342°
NNW
340°
NNW
339°
NNW
345°
NNW
343°
NNW
334°
NNW
332°
NNW
327°
NNW
320°
NW
325°
NW
344°
NNW

N
30°
NNE
42°
NE
33°
NNE
17°
NNE
12°
NNE

N
351°
N
342°
NNW
327°
NNW
319°
NW
315°
NW

Daily Forecast

Date High Low Precip. Humidity
Today
Jul 28

Clouds
94 °F
72 °F
38%
53%
Thursday
Jul 29

Clear
102 °F
73 °F
5%
31%
Friday
Jul 30

Clouds
101 °F
76 °F
0%
29%
Saturday
Jul 31

Clouds
101 °F
78 °F
31%
36%
Sunday
Aug 1

Rain
96 °F
73 °F
100%
42%
Monday
Aug 2

Rain
82 °F
72 °F
100%
74%
Tuesday
Aug 3

Rain
81 °F
71 °F
100%
73%
Wednesday
Aug 4

Rain
83 °F
69 °F
100%
66%
Thursday
Aug 5

Rain
79 °F
69 °F
87%
84%
Friday
Aug 6

Rain
89 °F
67 °F
98%
49%
Saturday
Aug 7

Rain
89 °F
71 °F
94%
60%
Sunday
Aug 8

Rain
92 °F
73 °F
81%
49%
Monday
Aug 9

Rain
93 °F
73 °F
87%
56%
Tuesday
Aug 10

Rain
93 °F
74 °F
61%
49%
Wednesday
Aug 11

Rain
92 °F
73 °F
99%
47%
Thursday
Aug 12

Rain
90 °F
72 °F
92%
54%

Temperature 8-14 Day Outlook



Precipitation 8-14 Day Outlook




Quick Links
Thurlow Lake News
Thurlow Lake Photos
Thurlow Lake Videos




About Us
Contact Us
Site Map
Search Site
Advertise With Us
   
Tallassee.USLakes.info
THE THURLOW LAKE WEBSITE

Copyright 2021, Lakes Online
Privacy    |    Legal